TimeEDT,TemperatureF,Dew PointF,Humidity,Sea Level PressureIn,VisibilityMPH,Wind Direction,Wind SpeedMPH,Gust SpeedMPH,PrecipitationIn,Events,Conditions,WindDirDegrees,DateUTC
12:54 AM,44.1,37.0,76,30.31,10.0,Calm,Calm,-,N/A,,Clear,0,2013-04-26 04:54:00
1:54 AM,42.1,35.1,76,30.31,10.0,NW,4.6,-,N/A,,Clear,320,2013-04-26 05:54:00
2:54 AM,41.0,35.1,79,30.32,10.0,Calm,Calm,-,N/A,,Clear,0,2013-04-26 06:54:00
3:54 AM,43.0,34.0,71,30.34,10.0,West,3.5,-,N/A,,Clear,260,2013-04-26 07:54:00
4:54 AM,39.0,36.0,89,30.37,7.0,Calm,Calm,-,N/A,,Clear,0,2013-04-26 08:54:00
5:54 AM,39.9,33.1,77,30.38,10.0,Calm,Calm,-,N/A,,Clear,0,2013-04-26 09:54:00
6:54 AM,39.0,36.0,89,30.41,9.0,Calm,Calm,-,N/A,,Clear,0,2013-04-26 10:54:00
7:54 AM,48.0,37.0,66,30.43,10.0,NNW,3.5,-,N/A,,Clear,330,2013-04-26 11:54:00
8:54 AM,51.1,36.0,56,30.45,10.0,North,10.4,-,N/A,,Clear,350,2013-04-26 12:54:00
9:54 AM,53.1,35.1,50,30.45,10.0,NNW,8.1,-,N/A,,Clear,330,2013-04-26 13:54:00
10:54 AM,55.0,32.0,42,30.45,10.0,Variable,5.8,16.1,N/A,,Clear,0,2013-04-26 14:54:00
11:54 AM,57.9,32.0,37,30.44,10.0,NW,8.1,18.4,N/A,,Clear,320,2013-04-26 15:54:00
12:54 PM,59.0,28.9,32,30.42,10.0,Variable,3.5,-,N/A,,Clear,0,2013-04-26 16:54:00
1:54 PM,61.0,28.9,30,30.40,10.0,WNW,5.8,-,N/A,,Clear,290,2013-04-26 17:54:00
2:54 PM,63.0,27.0,26,30.39,10.0,Variable,6.9,-,N/A,,Clear,0,2013-04-26 18:54:00
3:54 PM,63.0,27.0,26,30.38,10.0,WNW,10.4,-,N/A,,Clear,290,2013-04-26 19:54:00
4:54 PM,63.0,26.1,25,30.38,10.0,West,5.8,-,N/A,,Clear,280,2013-04-26 20:54:00
5:54 PM,62.1,26.1,25,30.39,10.0,WNW,11.5,-,N/A,,Clear,290,2013-04-26 21:54:00
6:54 PM,60.1,26.1,27,30.38,10.0,NW,5.8,-,N/A,,Clear,310,2013-04-26 22:54:00
7:54 PM,57.0,23.0,27,30.40,10.0,NW,8.1,-,N/A,,Clear,310,2013-04-26 23:54:00
8:54 PM,55.9,21.9,27,30.40,10.0,Calm,Calm,-,N/A,,Clear,0,2013-04-27 00:54:00
9:54 PM,53.1,27.0,37,30.42,10.0,Calm,Calm,-,N/A,,Clear,0,2013-04-27 01:54:00
10:54 PM,48.0,30.0,50,30.42,10.0,North,8.1,-,N/A,,Clear,10,2013-04-27 02:54:00
11:54 PM,48.0,30.0,50,30.43,10.0,Calm,Calm,-,N/A,,Clear,0,2013-04-27 03:54:00